DELTA 1 DEB, 21602

Orbit data source: Space-Track

DELTA 1 DEB, 21602 is space debris in SSO originally from a launch on Thu, 12 Jun 1975 UTC launched from the Air Force Western Test Range (AFWTR). Debris objects in space refer to the collection of defunct objects orbiting the Earth. Examples of debris include non-operational satellites, rocket bodies, and fragments generated from explosions, collisions, or faulty payload assembly.

Loading next visibility...
Identifier
21602, 1975-052HW
Orbit
SSO
Country
Flag of USUS
Related business
Manufacturer
Unknown
Mission
Spacecraft
Bus & Motor
Unknown
Mass
Unknown
Launch date (UTC)
1975-06-12 (50 years ago)
Launch vehicle
Unknown
Launch site
Air Force Western Test Range (AFWTR)
Object type
Payload
Rocket body
Debris
Shape & HBR
Unknown shape, 0.1 m
Radar Cross Section
Small (<0.1 m²)

Expand to show TLE details & history
Last TLE update: 18 hours ago

TLE from 18 hours ago
0 DELTA 1 DEB
1 21602U 75052HW  25291.05166836  .00003079  00000-0  41958-2 0  9992
2 21602  99.6610 321.2503 0077469  58.4465 330.5765 13.58616327670302
Epoch: 2025-10-18T01:14Z
TLE epoch observation values (Epoch: 2025-10-18T01:14:24.146Z)
Latitude
28.18514°
Longitude
-89.34513°
Altitude
994.134 km
Speed
7.382 km/s
True Right ascension
21h 04m 10s
True Declination
28° 02' 48"
Sunlit
Object was in daylight at epoch
Visualization orbit readout
Latitude
Unknown
Longitude
Unknown
Altitude
Unknown
Speed
Unknown
Apparent Right ascension
Unknown
Apparent Declination
Unknown
Sunlit
N/A
Visualization observer readout
Local Sidereal Time
14:19:16
Azimuth
Unknown
Elevation
Unknown
Doppler factor
Unknown
Orbital elements
Apogee altitude
1,095.465 km
Perigee altitude
980.56 km
Semi-major axis
7,416.15 km
Eccentricity
0.00775
Inclination
99.661°
RAAN
321.2503°
Arg. of periapsis
58.4465°
True anomaly
330.13669°
Mean anomaly
330.5765°
Eccentric anomaly
330.35697°
Mean motion
3.39841 °/min
Orbital period
105.93 mins
BSTAR
0.0041958
Loading maneuver chart data...
Computing Atmospheric mass density...

Documentation

Showing up to 5 results
|